GFSSE_250_spd_132.txt.gz
Wind_Speed
33 36 38 38 35 34 32 34 31 31 31 31 32 33 35 34 34 31 29 28 29 29 28 30 29 28 27 29 29 29 27 27 26 26 25 31 35 36 36 35 35 36 36
33 34 36 34 33 32 31 32 32 30 31 31 32 33 34 34 34 31 28 27 25 26 26 25 25 26 25 22 20 19 16 15 15 17 18 20 25 26 27 26 25 30 29
35 35 37 34 31 31 31 30 29 32 34 35 35 35 37 36 35 35 32 29 28 27 27 26 25 26 24 22 17 14 11 11 14 14 17 19 20 20 21 21 22 24 22
37 35 36 35 33 32 32 33 35 33 34 36 36 36 37 39 38 37 36 33 31 28 27 26 26 26 25 21 21 18 13 14 18 17 20 20 20 18 14 16 17 18 19
32 29 27 33 30 33 35 34 36 37 37 37 38 37 35 37 37 37 37 36 36 32 31 29 28 28 24 23 22 19 15 18 19 19 22 24 21 18 17 15 16 17 15
39 36 38 37 35 35 37 37 35 37 38 40 40 39 38 36 37 37 37 41 40 38 35 33 31 30 26 23 20 21 24 22 22 21 23 26 24 21 20 16 15 14 17
44 42 42 38 34 35 36 38 36 37 43 44 45 45 45 44 44 45 42 41 43 41 41 37 34 33 29 26 22 23 25 31 26 26 24 26 25 23 19 20 18 16 15
46 44 45 43 38 37 41 40 41 39 40 41 41 40 43 43 43 40 42 43 45 45 43 44 40 36 33 28 28 29 28 29 32 27 28 27 25 24 22 19 19 19 15
50 50 48 48 44 43 42 41 41 41 41 42 40 41 43 44 47 46 45 45 46 48 48 46 43 38 34 30 29 33 30 29 32 29 29 32 26 23 25 21 16 17 16
54 51 52 51 49 49 45 46 48 45 45 46 44 43 47 48 47 48 47 46 48 50 48 45 44 42 39 34 32 34 29 28 28 28 29 30 26 24 26 22 19 16 16
53 54 53 52 51 51 51 50 48 50 47 46 49 48 49 48 49 51 51 49 46 52 51 48 45 41 39 37 34 33 34 33 30 29 30 30 29 23 26 25 19 16 15
56 56 55 55 54 55 55 52 51 52 55 54 53 50 52 49 48 48 48 49 47 46 46 42 40 38 41 40 37 36 33 34 29 31 28 30 31 29 26 22 16 18 16
60 57 58 58 58 58 56 54 55 56 56 54 54 54 55 51 48 46 45 50 50 45 39 45 48 45 40 40 41 39 36 38 33 31 28 29 30 30 25 21 12 12 14
61 60 61 61 61 61 60 59 59 55 56 59 60 58 53 53 54 49 47 43 42 42 43 44 43 43 42 44 43 44 40 41 39 33 35 29 28 31 29 20 11 6 9
63 64 63 65 66 64 65 64 64 65 66 63 61 61 54 54 57 51 48 48 44 38 41 41 42 40 42 41 43 47 47 44 43 36 31 26 24 25 30 20 13 11 8
60 62 65 68 68 67 68 68 70 71 73 73 68 65 63 63 60 57 53 49 50 43 44 43 40 37 33 37 32 35 41 43 44 40 33 27 25 25 25 27 18 14 11
59 62 67 68 73 70 73 74 77 79 79 80 77 73 72 66 62 59 55 54 52 48 48 49 48 41 38 38 32 32 39 43 45 44 40 38 33 25 23 30 25 21 15
62 64 69 70 73 76 76 79 80 81 83 82 81 78 74 70 64 59 58 58 55 54 54 49 57 48 38 34 39 44 41 43 45 50 47 41 37 28 28 23 24 24 19
70 73 74 76 77 78 82 82 84 86 87 86 84 82 80 75 72 66 62 60 58 55 56 62 62 49 44 53 47 45 47 53 53 48 53 50 43 37 40 36 33 30 25
75 77 80 82 83 85 85 88 89 90 88 89 89 89 86 84 80 77 72 69 64 61 60 61 68 62 55 54 55 52 51 51 55 63 58 55 50 48 47 44 33 33 30
78 80 81 84 86 86 89 93 95 96 96 94 93 93 93 91 88 85 81 78 75 72 68 70 74 64 62 65 61 61 54 41 40 64 57 57 56 54 50 47 44 47 40
81 82 84 86 88 90 92 95 98 99 98 96 95 95 95 95 93 90 90 90 87 84 81 77 81 79 79 76 73 67 62 56 68 63 60 54 57 58 57 62 57 55 45
81 84 86 88 89 91 93 96 97 98 101 101 104 104 105 106 106 104 100 99 98 96 93 89 84 85 84 91 86 79 77 73 74 62 60 53 61 63 61 60 59 57 50
85 87 89 91 93 96 99 102 105 107 109 109 111 113 114 113 112 112 108 106 107 107 103 97 91 88 90 90 102 92 85 81 77 76 64 57 54 61 61 62 60 57 54
90 91 94 96 98 100 104 107 110 110 110 111 113 116 116 116 116 115 111 110 106 105 104 101 97 92 92 94 98 106 95 90 84 79 77 67 59 64 66 67 65 64 57
92 93 96 100 103 107 108 108 107 106 106 107 106 107 108 108 104 104 103 103 101 103 100 100 97 97 96 99 99 103 106 98 93 87 80 78 70 68 74 71 68 64 60

GFSSE_250_spd_135.txt.gz
Wind_Speed
34 33 34 35 34 35 37 35 34 36 34 35 34 35 34 33 33 33 32 29 27 28 28 28 29 29 28 28 28 29 31 31 31 31 32 32 31 31 32 31 29 31 34
36 36 37 38 34 36 37 35 35 35 35 35 35 35 35 35 35 34 33 31 28 27 27 29 30 29 26 24 24 25 23 22 23 23 22 21 20 23 23 25 24 27 31
38 40 38 41 38 38 39 39 39 35 34 34 36 37 37 38 38 38 36 35 31 29 26 28 30 30 28 27 25 22 23 19 17 17 15 18 19 18 16 18 20 18 20
38 40 40 41 38 36 39 39 41 40 40 39 38 36 37 38 37 37 35 33 31 31 31 31 31 31 32 30 26 25 23 21 19 19 20 22 26 21 17 15 16 19 18
39 38 42 40 36 36 35 38 39 41 42 41 42 43 41 40 41 41 38 34 34 34 33 35 36 34 33 33 30 25 25 24 25 25 25 26 27 27 23 17 14 15 16
39 39 43 45 45 45 45 43 39 37 39 41 40 42 42 41 41 40 41 41 40 40 38 36 39 38 38 36 33 28 26 27 28 29 28 26 28 29 29 22 18 13 13
41 43 46 47 47 47 46 42 42 41 40 42 41 42 44 46 45 47 46 45 44 45 44 41 41 42 42 40 36 31 27 27 29 31 34 29 27 32 28 25 21 16 14
47 46 45 49 49 48 50 48 48 45 43 45 45 46 42 44 43 41 42 42 43 43 45 44 45 46 46 43 39 35 28 31 31 33 34 33 29 25 28 28 24 18 15
50 47 46 49 49 50 49 50 49 48 46 44 46 46 44 43 42 44 43 42 41 44 47 46 46 47 48 47 43 38 33 32 32 31 34 29 28 29 27 25 27 20 16
51 48 47 48 51 52 51 52 53 53 52 51 48 51 49 48 47 49 48 50 47 46 45 48 47 46 48 45 45 43 39 35 34 30 31 29 29 30 29 27 31 26 17
50 49 51 53 54 54 54 53 54 55 55 54 52 51 52 48 49 47 47 50 47 51 50 46 48 48 43 45 42 40 42 39 35 33 34 32 27 31 29 28 30 28 16
54 53 55 55 56 57 57 56 57 57 56 57 56 53 51 52 53 53 51 50 50 47 45 47 46 46 36 31 32 37 41 41 40 33 33 29 31 28 28 31 34 30 20
56 60 60 60 61 61 60 60 60 59 59 57 55 51 53 56 58 51 48 48 49 47 46 44 43 48 40 40 41 42 38 39 44 36 36 34 32 27 26 29 34 32 19
59 62 65 65 64 64 64 62 63 63 60 58 56 54 54 53 54 56 53 50 50 46 44 45 42 41 44 46 43 40 40 41 44 43 38 37 34 33 26 24 28 32 19
63 64 66 68 68 68 67 67 67 66 62 60 59 59 58 60 62 62 58 52 49 49 48 44 45 45 44 42 43 43 46 43 42 44 43 45 39 38 27 20 28 29 25
63 66 68 70 71 70 70 69 68 67 67 67 67 65 63 63 66 68 69 66 61 56 51 44 38 41 47 48 46 44 47 47 41 38 37 41 42 35 29 25 27 27 30
65 66 68 70 71 71 71 71 72 74 74 73 71 72 71 70 74 76 68 66 65 62 52 42 41 42 52 57 54 55 47 50 40 38 36 38 39 40 32 33 30 29 34
68 67 68 70 71 73 74 74 73 73 76 78 78 79 78 78 78 76 71 66 62 62 56 53 56 45 64 54 56 57 48 44 41 42 44 46 42 42 40 39 33 36 41
72 70 70 71 74 76 77 77 79 80 82 83 84 85 83 84 85 85 81 74 65 62 59 63 66 69 62 59 59 62 58 55 52 52 57 54 42 43 43 41 41 37 33
69 70 73 74 77 79 82 81 80 80 79 83 84 87 88 90 89 90 88 82 73 67 67 66 69 73 73 69 67 71 61 65 60 53 55 53 51 45 44 43 45 41 43
71 71 74 77 78 80 82 85 87 87 88 87 86 91 92 93 94 96 97 96 85 74 72 75 75 75 73 73 75 73 71 64 64 55 58 60 56 51 51 54 49 52 50
70 68 71 78 83 86 88 89 90 91 90 89 90 91 93 98 101 102 102 100 100 96 82 77 79 80 78 79 76 75 72 79 75 66 62 62 63 55 48 56 52 60 56
72 72 72 74 76 79 81 84 86 88 90 92 94 95 97 98 99 101 102 101 101 101 100 93 86 83 83 84 83 78 77 81 82 72 68 68 60 59 48 49 56 62 58
77 80 81 83 84 86 88 90 92 95 97 99 101 102 105 106 108 108 109 109 109 107 105 105 103 96 91 90 91 89 85 89 93 85 79 80 70 62 56 56 60 60 55
82 83 85 86 90 93 93 93 94 94 97 99 102 103 103 106 110 112 112 111 110 109 107 105 105 106 103 99 100 96 89 96 93 94 90 90 82 81 76 66 60 63 67
88 89 90 92 93 94 95 97 99 101 102 105 109 112 112 113 109 106 105 104 103 104 104 104 102 99 100 100 101 99 97 103 102 104 100 100 98 91 81 70 65 66 69

GFSSE_250_spd_138.txt.gz
Wind_Speed
37 36 34 34 36 38 38 38 39 39 38 36 36 36 36 36 36 34 33 31 32 30 28 28 29 29 29 29 28 26 26 27 27 27 28 27 30 32 37 40 39 37 37
40 38 36 34 38 39 42 40 40 41 39 40 39 37 36 36 35 35 34 33 32 33 33 31 28 27 28 28 27 27 26 25 23 24 21 19 22 29 27 29 32 31 31
46 41 34 38 41 42 43 44 42 38 39 40 41 40 39 38 37 35 35 35 33 33 31 30 30 30 29 29 30 29 27 25 24 23 22 22 27 27 28 29 27 29 28
44 41 37 38 41 44 45 45 43 40 38 38 38 40 42 43 42 41 39 37 37 35 33 30 31 33 33 32 30 32 31 28 25 27 24 18 30 22 30 30 30 28 27
42 40 40 43 43 44 47 47 40 40 40 41 42 41 41 41 43 44 43 42 41 40 38 35 36 35 34 36 35 34 33 30 27 28 26 19 22 31 34 32 29 30 25
45 43 43 45 45 46 47 50 48 46 46 43 44 43 44 41 40 39 40 42 43 43 41 42 43 43 40 37 39 40 37 32 24 25 29 30 23 30 34 31 27 31 28
49 48 50 46 46 49 50 50 50 48 47 47 47 45 44 41 43 42 42 43 41 44 46 47 46 45 44 42 40 41 43 38 28 21 15 27 35 32 30 26 26 27 29
51 52 48 47 47 51 51 49 50 49 47 48 48 48 46 42 43 44 44 44 45 41 41 42 43 44 45 44 43 43 43 42 34 28 28 39 33 34 36 30 29 26 30
52 49 50 48 50 52 49 49 51 49 49 49 49 51 50 50 48 47 50 50 44 45 45 46 44 45 43 43 44 43 42 42 40 34 35 36 32 37 33 31 28 27 28
49 47 49 51 53 54 51 50 50 51 53 52 52 52 51 53 50 49 51 51 50 50 48 47 47 49 50 46 45 43 41 41 41 38 38 41 36 34 36 27 27 26 29
50 52 53 52 50 52 50 51 52 53 54 53 53 54 55 53 54 53 54 52 54 52 49 44 39 42 42 45 45 41 36 27 33 39 39 42 33 34 27 30 26 25 29
53 55 57 53 51 52 54 53 54 56 54 58 60 58 58 58 56 55 55 53 51 46 45 45 46 42 35 40 39 41 40 45 44 38 37 40 39 35 33 30 20 25 25
56 55 57 56 56 56 55 53 57 54 58 57 60 57 54 54 54 51 47 47 48 37 41 41 39 37 38 37 37 35 41 48 44 38 36 35 42 38 33 24 23 20 23
59 60 59 58 58 60 60 60 58 61 64 63 61 60 63 62 60 57 53 49 44 45 39 39 45 41 39 41 41 41 40 44 44 41 39 40 37 41 36 33 30 28 28
58 65 66 66 65 63 63 61 59 60 64 66 67 67 67 66 63 60 58 56 52 51 49 48 40 36 40 42 48 46 48 45 40 42 38 41 42 42 46 42 36 33 30
62 67 70 71 70 68 68 68 66 65 67 68 68 69 69 66 64 64 62 60 60 62 62 59 52 44 39 43 62 56 49 56 47 46 41 42 44 45 43 48 44 32 30
62 66 71 72 72 72 71 73 74 73 70 70 71 71 69 68 69 69 67 64 62 63 61 60 58 46 44 48 44 62 49 52 47 56 50 43 49 45 49 50 40 37 32
64 64 68 69 73 75 76 74 72 76 76 71 70 71 71 70 70 70 72 70 71 69 60 59 55 54 62 61 63 48 50 56 49 47 43 57 52 45 47 45 37 38 40
65 67 69 69 71 73 73 74 75 76 76 78 76 74 73 74 76 78 76 75 74 71 68 61 62 58 67 62 64 68 50 48 60 57 52 47 46 47 49 45 43 40 39
66 67 68 71 70 71 74 74 74 74 74 78 82 84 83 81 78 75 76 77 78 78 75 71 66 69 74 75 76 72 76 62 60 57 57 58 50 49 48 54 54 49 44
70 70 70 71 71 71 72 75 78 78 80 80 82 85 88 89 88 84 82 83 82 81 79 81 73 77 83 84 82 78 79 81 73 69 64 65 60 59 59 52 59 60 49
72 71 72 74 76 76 75 75 75 75 75 80 83 86 92 91 91 90 90 90 90 89 89 87 87 79 86 92 92 89 86 80 85 86 80 74 66 64 69 59 61 62 57
78 77 79 79 79 79 79 78 79 80 81 80 79 79 85 87 91 93 91 88 90 91 92 94 95 96 89 97 99 99 94 88 87 88 86 81 79 73 80 67 63 63 60
84 83 83 84 84 83 83 83 83 84 88 91 91 91 92 92 93 92 93 97 100 101 101 100 100 100 100 95 104 109 104 99 94 88 89 86 84 81 82 81 68 70 63
91 90 89 88 88 89 91 91 90 90 90 89 91 94 96 97 100 101 100 101 100 101 99 100 102 103 104 105 103 113 114 110 105 100 93 91 91 88 88 89 74 71 63
95 95 94 92 93 94 94 95 94 94 92 93 95 97 99 101 104 106 106 104 104 105 107 106 103 103 103 103 105 106 115 121 119 111 105 101 95 94 96 96 87 76 73

GFSSE_250_spd_141.txt.gz
Wind_Speed
42 40 38 36 36 35 35 38 38 39 37 38 37 37 37 35 33 33 32 32 30 29 29 29 28 27 25 24 26 28 28 27 25 25 26 30 29 28 28 28 29 34 34
44 43 41 39 40 38 38 39 40 40 40 39 37 34 33 35 36 35 34 34 32 32 32 32 31 30 26 25 26 28 29 29 27 26 26 30 30 26 29 25 34 35 36
44 42 41 39 40 40 42 41 42 43 43 41 39 36 35 34 34 36 37 38 37 36 35 32 30 29 27 28 30 30 31 31 27 27 28 30 30 29 32 23 38 35 33
46 46 41 41 40 42 42 44 45 46 45 44 42 38 39 39 39 38 39 37 37 40 39 37 35 32 31 30 33 35 33 32 31 29 27 31 30 32 30 29 35 32 33
45 44 43 43 44 44 45 46 48 49 47 45 41 42 43 41 41 40 40 41 41 39 37 36 36 35 34 36 39 39 39 37 36 35 27 30 33 35 33 32 31 32 30
45 44 46 47 46 47 47 51 51 50 49 47 45 43 44 41 41 42 39 38 40 40 40 41 39 39 40 43 46 43 43 41 40 38 32 32 35 22 31 37 29 34 30
47 48 47 46 48 47 49 50 50 48 49 48 46 47 45 44 43 43 42 39 38 38 39 39 39 40 39 41 43 44 42 42 42 40 37 33 29 31 36 35 32 29 30
49 49 48 48 49 50 47 47 49 50 50 49 46 45 46 45 46 46 45 42 42 40 41 40 41 40 41 41 43 46 44 42 42 42 39 36 36 38 38 36 33 31 27
50 50 50 50 50 47 45 47 48 51 52 51 50 45 44 46 47 48 49 47 47 43 43 43 42 43 43 41 38 41 40 42 40 39 39 37 38 42 39 33 36 38 27
51 53 53 51 50 48 48 49 52 51 50 50 52 51 49 47 46 48 51 50 50 47 44 45 44 43 38 34 34 34 32 33 35 35 36 38 39 41 42 41 34 32 29
45 48 50 51 52 50 50 51 50 49 50 51 55 55 55 51 48 49 55 54 51 49 47 42 39 34 35 35 33 30 31 28 29 31 35 36 33 34 39 42 34 28 28
47 47 49 51 50 53 55 54 50 48 50 51 54 53 51 49 48 51 53 56 50 47 42 35 30 26 32 29 29 31 31 29 30 30 36 34 33 32 34 38 38 32 25
47 47 47 48 49 49 53 57 57 52 53 51 36 55 54 52 49 48 55 56 51 48 39 37 34 32 34 29 30 27 33 36 38 38 35 36 31 33 34 34 37 36 31
55 54 55 51 52 54 54 55 58 58 56 58 61 66 62 54 57 59 56 57 59 52 49 46 40 36 38 34 34 39 40 40 39 42 42 38 37 33 39 38 35 39 27
58 58 59 60 60 61 59 59 59 61 63 63 64 66 68 66 65 65 66 67 69 64 60 52 44 37 42 33 24 57 57 49 37 40 46 42 36 36 38 41 39 41 42
61 63 65 65 66 64 62 59 63 66 67 67 66 68 71 71 70 71 70 68 66 67 64 60 54 52 46 43 38 52 41 55 51 36 46 46 44 47 39 39 39 43 46
61 65 65 69 69 67 63 62 65 67 67 70 71 73 74 75 75 75 73 71 69 68 67 63 64 63 63 55 56 60 53 38 51 47 42 45 40 41 46 46 46 45 47
63 65 67 67 68 69 69 65 64 64 64 66 70 74 77 78 79 76 75 75 73 71 69 69 68 67 70 67 70 62 60 56 50 41 48 45 43 34 35 40 45 52 50
68 67 66 69 70 68 68 66 66 66 66 67 69 71 73 75 76 77 76 75 77 75 74 74 72 72 71 74 74 73 71 73 64 58 48 47 50 49 33 37 46 47 51
71 72 77 77 76 70 70 69 68 70 69 71 72 74 74 75 75 74 74 76 77 76 79 78 77 76 76 77 81 81 77 75 72 70 68 64 61 53 60 40 50 49 47
77 81 82 80 77 76 75 73 72 74 74 73 74 79 76 78 77 77 79 81 82 85 83 78 79 85 82 84 81 85 85 81 80 76 78 75 65 65 62 56 52 52 51
78 79 80 81 79 78 79 78 79 78 81 83 81 81 81 81 79 77 78 79 83 85 86 88 87 84 84 85 84 89 90 89 87 83 79 83 80 72 69 72 63 63 59
81 82 82 80 80 79 80 80 81 81 82 85 86 85 85 86 85 84 82 81 81 82 83 88 89 93 96 99 98 93 91 92 93 95 88 86 86 80 79 81 67 70 67
90 90 88 88 89 88 87 87 88 89 89 89 89 90 90 90 89 91 90 91 93 92 91 89 89 92 96 101 109 110 109 106 104 101 101 97 92 91 88 85 85 79 74
95 94 95 96 96 95 94 94 94 95 95 96 96 92 91 91 92 92 92 93 94 97 101 102 99 97 97 99 103 109 104 107 110 108 108 108 106 98 94 94 93 96 85
101 99 98 99 99 99 98 97 97 96 96 96 95 96 98 98 95 96 96 96 98 98 98 97 99 101 101 100 103 107 110 107 103 105 103 108 109 110 103 101 98 97 91

GFSSE_250_spd_147.txt.gz
Wind_Speed
39 39 41 39 37 37 38 36 37 41 42 41 40 39 39 36 34 35 36 33 30 27 27 29 30 32 31 31 33 31 30 31 32 29 28 28 28 27 28 29 31 30 29
41 42 41 40 39 35 37 40 42 43 40 39 39 39 39 38 36 36 36 34 33 30 28 27 29 30 32 34 35 33 32 33 30 29 28 29 30 30 30 32 32 31 30
38 41 43 42 39 40 40 42 44 42 40 37 38 39 39 39 41 39 37 35 36 32 32 30 29 28 28 32 32 32 34 34 32 32 33 33 33 32 36 36 33 32 32
42 42 44 43 43 43 43 44 43 42 42 41 41 41 40 41 42 40 38 37 36 36 33 32 32 30 29 28 29 29 31 31 31 33 36 38 36 33 35 37 34 34 29
43 45 46 46 46 45 44 43 44 45 45 44 42 40 41 41 41 40 39 35 34 35 34 32 32 32 30 29 29 29 30 30 30 31 31 33 33 32 30 38 41 35 30
43 44 44 43 42 41 41 43 44 43 44 46 44 42 42 41 41 40 40 37 33 33 36 33 32 34 33 33 33 33 32 32 30 30 33 36 36 33 34 33 38 40 41
42 41 39 39 39 38 37 38 40 43 44 45 46 45 43 41 40 41 41 41 37 35 34 34 33 35 35 33 32 33 33 33 32 30 29 29 30 29 30 28 33 39 39
43 41 40 37 38 38 38 40 42 43 44 45 46 46 46 45 45 44 44 41 37 36 37 37 36 36 37 35 32 32 32 33 32 27 27 29 26 21 27 29 33 37 36
43 39 38 38 38 38 41 43 44 43 43 44 47 47 47 48 47 47 45 42 37 36 38 38 36 35 35 34 34 31 32 28 26 26 22 22 13 13 15 22 26 31 33
41 41 38 39 40 43 43 43 44 45 46 46 48 48 49 52 50 48 47 45 44 43 38 41 39 37 38 38 36 34 28 25 28 32 28 21 21 21 16 19 21 22 26
42 42 43 43 44 46 45 46 46 50 49 48 48 49 51 50 50 53 52 49 48 47 46 39 41 36 38 40 36 35 33 34 34 31 27 22 26 25 28 29 22 24 22
47 45 42 45 48 50 52 51 52 52 53 54 53 51 49 48 49 52 53 56 51 43 41 44 43 43 40 37 35 31 28 31 30 34 38 38 30 19 25 29 34 29 29
49 45 42 43 46 51 54 56 57 55 56 56 58 56 56 59 59 61 58 56 59 51 47 47 49 43 38 34 35 35 28 40 35 37 35 37 36 31 34 30 29 33 34
45 44 46 46 48 53 57 61 61 59 59 61 62 62 61 62 62 56 56 55 57 60 58 57 56 52 46 41 39 41 33 31 36 41 40 39 45 47 44 33 35 31 31
51 51 52 50 50 51 52 55 59 62 63 64 66 65 64 64 64 66 60 55 55 59 67 65 62 60 62 63 56 50 46 44 49 45 53 47 48 53 45 45 33 32 29
60 57 54 54 55 55 54 55 58 59 61 61 62 65 65 64 64 65 65 64 62 60 62 71 74 72 72 69 67 61 60 51 57 55 54 41 45 42 35 40 47 36 34
65 63 61 61 60 61 62 64 66 67 67 66 65 67 68 67 68 70 70 69 64 61 63 65 71 80 80 74 70 69 71 72 72 70 61 59 51 42 42 36 38 39 43
71 70 68 68 67 69 73 76 75 73 72 74 75 75 74 73 71 69 67 68 66 62 63 64 67 70 70 78 78 77 76 77 75 71 70 67 63 64 51 45 40 42 45
73 73 72 73 75 77 79 76 76 76 76 76 77 79 78 75 75 74 73 72 70 69 66 64 64 67 70 70 76 83 82 81 79 79 74 72 73 72 68 57 51 39 40
74 75 76 80 81 80 78 79 78 78 79 79 79 78 77 78 80 80 77 75 75 74 73 72 69 69 69 71 72 76 86 86 84 83 83 79 75 78 74 68 55 47 47
79 81 85 87 86 86 85 79 75 75 74 74 76 79 81 83 83 83 85 83 81 80 78 77 79 77 75 74 76 77 78 86 89 88 88 86 82 78 81 81 65 57 54
86 88 90 91 91 90 84 79 76 74 76 82 86 88 86 86 86 89 90 90 88 88 87 87 86 84 80 78 77 80 82 82 84 92 92 92 89 86 85 84 80 70 67
93 95 95 97 94 90 80 79 82 89 91 100 99 97 94 95 97 97 96 96 93 91 94 90 91 90 87 84 80 81 83 85 87 88 94 94 96 93 91 92 90 82 81
95 95 96 98 98 92 87 88 91 100 105 114 111 100 94 94 96 98 98 99 100 97 96 97 97 95 92 93 89 85 85 85 88 91 92 94 97 100 100 97 96 95 90
98 100 95 93 86 85 86 98 103 113 118 121 108 101 97 96 97 95 97 100 100 99 99 96 96 98 97 97 95 93 91 90 90 93 96 98 98 101 105 106 104 102 102
89 86 82 91 86 94 100 112 118 124 125 114 100 96 96 94 90 88 88 88 86 86 86 88 91 94 93 96 96 95 92 93 93 94 98 102 104 104 105 109 110 109 108

GFSSE_250_spd_153.txt.gz
Wind_Speed
39 40 37 36 34 31 34 34 37 39 41 42 41 39 39 40 40 38 36 36 38 39 38 37 36 35 35 36 34 33 31 31 32 31 31 31 29 28 29 29 27 28 29
36 39 40 37 36 33 32 31 32 35 36 40 42 43 42 41 41 40 37 38 37 38 37 37 36 37 37 36 33 33 32 29 27 28 30 33 33 31 31 29 30 31 33
39 38 41 39 38 36 30 31 33 34 37 40 42 42 42 41 39 39 36 36 38 39 39 38 37 37 37 37 35 33 34 32 30 27 26 26 28 30 31 29 29 32 33
38 42 39 41 40 38 36 34 35 34 35 35 35 36 38 39 39 38 39 40 37 36 37 36 36 37 35 35 36 34 32 31 31 26 24 22 23 23 27 30 31 28 30
43 43 42 44 41 39 39 36 36 37 37 34 33 34 34 33 32 33 34 33 34 34 35 37 37 37 35 33 33 34 32 33 32 30 26 25 24 23 23 25 28 30 26
45 44 43 45 41 41 40 38 38 39 39 37 33 32 32 32 33 31 32 33 33 36 38 37 37 37 36 36 34 34 35 34 32 31 28 26 25 25 24 23 24 28 31
48 49 49 45 40 40 39 39 40 39 40 40 37 35 35 34 31 27 28 31 34 36 37 37 38 38 36 36 36 35 36 34 32 30 28 25 24 26 25 24 24 23 26
51 50 49 42 39 39 39 40 41 41 39 38 38 38 39 37 35 34 33 31 32 34 34 36 39 37 35 33 33 35 36 34 33 29 25 22 19 20 20 22 23 23 20
51 50 46 41 38 38 39 40 39 40 38 38 37 37 36 39 40 40 39 37 39 37 37 38 33 33 36 37 38 38 38 39 36 34 33 30 30 29 28 24 26 27 20
47 43 40 40 37 39 41 43 43 39 36 36 39 42 41 41 41 41 43 44 44 43 41 39 39 38 38 35 38 41 43 40 40 38 37 34 36 36 30 23 23 19 18
38 40 40 38 40 40 40 38 37 39 39 40 41 41 42 45 46 46 49 48 49 49 49 47 46 45 45 44 41 40 42 45 43 38 36 37 39 39 37 35 30 27 20
36 38 40 41 40 42 40 42 43 42 42 43 45 46 45 44 44 46 50 51 53 53 53 53 52 49 47 44 46 42 40 41 43 44 41 42 39 37 36 41 34 30 27
40 40 42 41 42 43 46 45 45 45 46 47 46 43 42 42 45 46 48 49 50 52 53 57 56 58 55 51 49 49 47 44 45 44 45 46 47 42 41 40 40 34 30
44 45 45 42 46 48 49 49 49 49 47 48 49 50 53 53 51 51 53 55 55 55 56 55 57 59 60 59 57 54 50 51 49 46 46 46 48 48 49 45 43 34 35
46 47 46 48 47 50 52 55 57 56 57 55 56 57 55 58 59 61 63 62 57 60 58 58 59 59 59 60 60 59 56 55 56 56 50 52 55 51 49 46 49 41 39
48 47 47 48 51 54 56 60 60 59 59 61 62 63 64 66 68 70 70 67 67 64 64 63 63 63 62 63 62 62 61 60 61 59 64 59 57 59 55 48 45 53 46
48 50 54 56 57 59 60 62 64 65 64 64 64 66 68 70 73 73 73 72 72 72 70 66 66 67 65 65 64 64 65 65 64 66 65 72 68 65 63 59 53 53 51
49 52 54 55 56 57 58 59 62 65 67 70 72 72 73 74 75 75 73 73 73 72 69 68 66 65 62 66 66 64 63 67 68 68 71 69 75 74 69 66 62 59 52
47 49 55 56 56 59 60 63 65 64 69 73 75 76 78 79 77 76 75 72 68 66 60 65 63 65 66 70 69 72 73 71 72 72 75 74 73 78 83 78 74 66 63
53 57 60 62 66 65 65 68 71 75 77 77 77 82 85 85 80 77 71 60 59 63 65 72 78 77 76 84 87 81 84 83 75 76 77 77 75 73 83 89 85 80 74
61 64 64 67 65 68 72 75 78 81 80 83 85 87 85 81 79 72 71 73 71 76 75 81 89 96 98 96 93 95 94 93 85 81 81 80 80 78 76 85 93 90 84
67 68 70 71 72 73 74 78 83 85 86 86 82 83 78 74 74 72 76 77 80 83 90 100 100 100 104 100 101 98 103 97 94 91 86 84 83 85 82 80 84 92 94
73 72 72 75 76 78 80 82 84 85 87 84 82 75 71 70 75 76 80 86 91 97 106 109 108 105 105 106 104 102 97 95 96 94 92 88 84 86 87 87 85 86 89
77 79 77 77 79 81 84 84 86 84 84 81 80 76 75 78 87 88 89 99 104 109 110 109 104 102 101 92 86 87 87 91 92 94 94 95 93 89 89 90 91 88 87
82 83 80 82 88 86 85 88 88 87 82 88 89 88 91 88 94 96 104 110 110 112 113 97 91 86 83 80 77 79 84 88 94 92 97 99 98 95 92 92 93 94 91
89 88 90 90 95 95 95 93 85 84 87 96 93 100 104 106 109 112 115 118 119 115 91 81 81 80 79 75 73 77 80 84 94 98 101 103 102 99 97 97 95 97 97

GFSSE_250_spd_156.txt.gz
Wind_Speed
41 44 39 37 39 39 36 35 36 37 37 39 41 41 44 44 44 43 43 43 43 43 41 39 38 39 38 37 39 37 37 38 38 37 35 37 35 34 33 34 32 31 30
47 42 39 41 42 39 39 36 36 37 35 36 37 37 37 40 44 44 43 43 41 41 40 39 38 39 38 37 37 37 38 36 36 34 33 34 34 33 34 35 35 33 32
43 40 43 40 37 43 41 37 37 41 37 32 33 35 34 35 37 40 43 42 40 38 37 37 39 39 40 39 37 37 37 38 36 35 34 33 33 31 31 32 32 32 32
46 47 43 41 42 43 41 41 39 41 40 36 35 36 36 35 35 35 35 35 37 36 37 38 34 32 34 36 37 36 35 36 37 36 33 33 30 27 28 29 31 32 32
43 44 43 42 43 42 41 43 41 41 42 37 36 37 37 34 32 30 30 31 30 31 31 32 33 33 36 35 35 36 35 35 37 37 36 34 33 32 30 27 27 29 29
42 44 41 41 44 45 44 46 41 41 41 39 36 38 37 36 34 32 31 28 25 24 27 30 32 32 34 33 35 37 39 36 37 40 38 36 33 31 30 28 27 27 27
45 45 43 43 43 45 44 42 38 39 40 40 39 38 36 37 38 38 34 32 30 30 28 27 29 31 33 33 34 34 36 38 39 39 39 37 34 30 27 27 26 23 22
47 46 45 43 42 42 42 37 38 38 39 40 39 40 36 33 35 35 33 35 34 35 33 34 33 31 31 30 32 34 36 36 37 37 36 36 33 29 23 19 21 23 17
40 38 40 39 39 39 35 36 36 38 39 40 40 39 38 38 37 39 37 39 39 38 39 39 39 38 36 34 33 32 35 39 39 38 39 36 36 35 34 34 32 26 25
40 37 36 38 36 35 37 35 38 39 39 39 38 37 38 39 40 42 42 42 44 44 44 45 45 44 43 42 40 41 40 39 40 43 44 41 41 42 41 45 41 36 32
41 39 33 32 34 35 36 39 38 39 41 41 40 38 37 38 39 41 43 44 44 45 47 48 48 49 48 47 46 45 44 42 40 39 42 43 44 44 44 47 44 42 38
37 37 38 37 36 36 37 40 41 43 42 45 45 44 43 41 40 41 42 44 47 49 51 52 53 52 52 53 52 49 48 45 42 42 41 44 48 48 44 46 46 43 40
38 36 38 41 40 42 41 41 43 45 45 45 44 47 48 49 49 50 50 52 54 53 52 52 54 56 58 56 54 55 54 53 51 49 45 47 46 51 48 44 48 45 47
47 46 46 43 44 44 41 42 46 49 50 50 51 53 54 55 54 56 55 57 56 59 59 59 59 58 57 60 61 61 59 57 57 56 51 49 51 52 57 53 52 49 44
50 50 47 46 46 48 49 46 50 53 55 57 58 57 56 57 59 59 61 62 64 63 64 65 65 65 64 60 58 62 64 66 66 63 60 55 56 54 56 59 58 56 51
46 45 47 46 48 50 49 51 55 57 54 53 52 51 53 56 58 61 63 64 66 66 67 69 70 70 70 67 65 62 61 64 70 69 68 64 59 64 59 59 59 60 60
45 44 44 44 45 46 47 47 47 50 51 53 55 58 60 61 61 64 65 69 70 71 71 72 74 74 73 72 71 71 63 64 67 72 74 69 68 65 69 66 64 64 63
45 45 43 43 44 47 48 50 51 53 57 56 59 63 64 66 67 67 70 71 72 77 76 80 75 78 76 67 62 66 63 61 66 73 74 75 74 72 70 73 71 72 71
46 46 46 48 51 52 52 54 56 58 58 62 63 66 69 69 71 74 76 77 75 76 74 71 70 66 58 58 60 62 67 70 69 74 77 77 77 79 77 75 80 74 76
50 52 52 53 54 56 58 62 62 62 65 67 68 71 74 73 73 75 77 74 74 68 69 68 69 67 65 68 70 70 74 77 80 86 86 85 80 82 84 82 82 83 83
56 59 60 61 62 62 64 66 68 70 70 71 74 76 78 78 78 75 77 71 69 67 68 72 70 68 73 77 82 83 87 90 96 101 104 98 89 79 86 89 87 87 85
62 65 68 70 70 73 73 74 74 76 78 77 80 82 81 80 83 78 73 73 73 73 72 70 75 81 84 87 90 90 98 106 111 111 107 102 94 88 86 85 91 91 91
66 69 73 75 77 78 79 80 81 82 80 84 83 86 85 83 82 77 76 76 83 84 86 91 96 96 100 100 105 105 100 108 113 112 110 108 103 96 90 89 88 93 93
67 72 75 78 79 81 84 87 86 86 87 85 88 89 85 88 88 84 81 86 94 94 98 100 108 111 111 107 106 103 101 97 95 93 91 90 94 98 99 98 96 92 97
78 79 83 86 86 87 87 86 92 92 94 94 91 90 83 84 82 86 93 93 100 103 107 111 117 116 113 104 100 95 89 83 86 85 82 78 80 83 87 91 95 96 99
80 85 91 94 94 94 94 94 93 94 94 94 88 88 93 92 88 94 96 97 109 113 119 118 119 116 108 103 97 89 86 84 83 83 78 78 76 78 81 85 90 94 94

GFSSE_250_spd_159.txt.gz
Wind_Speed
45 44 45 47 48 46 44 43 43 41 44 44 39 40 36 38 40 41 41 43 44 44 45 44 42 42 41 41 37 38 38 38 37 38 39 38 39 37 36 37 38 38 38
41 46 46 48 48 43 43 44 43 44 45 42 41 41 40 35 35 37 37 37 39 42 43 42 43 41 42 40 39 39 38 36 37 37 37 36 38 37 36 35 35 36 38
39 41 47 49 48 45 45 44 43 44 44 39 42 42 42 41 36 36 36 35 34 34 35 38 39 38 38 38 39 37 36 35 36 37 36 35 36 34 34 34 35 34 34
39 40 42 44 45 46 45 43 44 46 40 39 40 42 41 39 37 36 35 34 31 30 28 30 33 34 35 35 34 34 34 35 36 36 36 37 39 38 36 34 32 32 32
39 40 42 41 42 42 44 43 42 43 41 40 38 40 42 37 35 33 32 31 30 29 28 28 30 31 32 32 33 34 32 32 34 36 36 38 38 38 37 36 35 34 30
41 42 42 42 44 46 46 45 44 42 40 39 37 39 41 40 38 35 33 32 32 29 26 27 26 28 28 29 32 33 31 32 33 37 39 40 40 40 39 36 35 34 33
39 39 39 41 41 44 46 43 42 41 41 38 37 40 40 39 38 37 34 32 33 32 30 31 29 29 29 30 29 30 32 33 31 32 39 41 42 41 39 38 36 33 32
37 35 37 38 33 33 34 36 38 40 38 36 38 39 42 42 40 37 36 36 36 35 35 36 38 36 36 35 34 32 30 30 32 37 36 38 40 42 38 37 35 32 28
35 31 35 39 35 32 33 35 36 37 36 37 37 43 42 41 40 38 38 38 39 40 41 42 42 41 42 42 41 40 38 37 36 37 39 36 38 39 39 38 36 34 30
36 31 34 36 36 35 34 34 35 35 37 39 41 41 43 42 43 43 41 41 40 39 43 43 43 45 45 45 45 47 46 44 43 42 40 40 39 40 41 39 40 39 40
39 37 33 36 34 34 34 37 39 39 42 43 44 44 44 43 42 41 41 43 43 44 44 45 45 46 50 50 52 51 50 50 50 50 47 43 43 40 40 42 42 42 44
41 38 38 38 38 36 39 42 42 43 41 42 44 40 39 42 43 44 47 48 49 51 51 52 54 53 52 53 54 55 55 54 53 53 51 49 47 40 39 43 46 47 45
40 41 39 41 45 42 43 42 42 43 41 42 43 42 47 49 50 51 54 54 55 54 54 56 57 59 58 60 58 57 57 56 56 56 55 55 52 50 46 47 45 48 51
41 42 44 47 49 47 45 44 45 46 44 44 46 51 54 56 56 55 55 55 55 58 60 60 62 63 63 61 59 59 62 61 61 61 61 59 61 56 55 53 50 48 53
47 48 50 50 50 49 48 47 45 47 49 52 53 54 55 53 52 54 54 52 52 52 55 58 58 60 63 64 64 66 67 67 67 64 64 65 66 65 61 60 55 53 55
51 50 53 53 52 51 50 50 47 48 51 54 54 56 54 54 56 57 57 60 60 61 63 64 66 70 69 69 70 69 70 69 70 67 66 66 68 71 69 64 65 60 60
52 53 53 55 54 52 50 49 48 46 49 53 55 55 56 58 58 60 61 62 65 65 67 68 71 73 72 71 71 75 73 72 73 74 71 70 66 66 69 75 73 70 66
53 52 54 52 51 49 48 48 48 51 50 52 55 58 61 62 63 64 66 68 68 72 71 75 78 79 81 76 72 71 71 72 73 73 73 74 71 66 67 71 76 73 75
53 51 53 53 53 51 53 54 56 57 58 59 59 61 61 66 67 69 71 73 76 76 78 79 82 82 79 75 66 65 68 71 73 74 74 72 70 72 72 73 73 80 79
52 52 53 55 57 57 58 60 63 65 64 67 68 70 70 73 75 77 76 79 81 82 83 87 83 84 77 62 65 63 62 68 70 72 71 73 74 78 74 77 82 81 86
59 59 59 61 60 59 62 63 67 70 71 73 75 74 75 78 78 80 81 84 85 86 86 84 81 77 70 73 69 72 77 69 67 76 84 84 92 89 88 88 88 88 89
64 65 66 68 69 65 65 69 71 72 72 76 79 81 83 84 84 86 87 87 85 78 73 75 84 84 85 89 84 80 87 89 84 91 92 91 96 96 105 107 99 86 82
64 64 65 65 67 69 73 74 77 75 79 82 83 87 89 93 91 91 89 87 87 79 84 81 82 81 78 82 83 90 94 97 101 98 100 99 95 98 105 113 112 99 90
68 71 76 75 74 76 76 73 76 79 85 88 90 92 95 89 92 95 93 89 89 89 87 90 93 93 89 90 98 104 111 107 108 111 100 93 88 88 94 100 110 110 103
76 76 79 79 79 80 79 79 84 83 87 88 93 95 95 95 94 88 91 90 91 95 95 97 102 104 98 98 114 107 108 114 119 112 95 89 85 82 85 87 88 84 85
81 82 83 83 84 86 88 86 88 89 95 99 101 102 97 100 96 98 99 96 96 98 97 106 109 110 106 112 112 111 116 120 113 102 90 88 81 79 77 75 73 72 75